[TLELIST] Archives

 

[list_settings.list_name] Current TLEs

November 23rd 2021 PST

HST 1 20580U 90037B 21326.77789253 .00000672 00000-0 29503-4 0 9994 2 20580 28.4697 97.3551 0002585 333.5641 142.7677 15.09847000534941 ISS (ZARYA) 1 25544U 98067A 21327.09520073 -.00003894 00000-0 -63390-4 0 9992 2 25544 51.6433 276.9828 0005100 229.5055 237.2561 15.48613132313221 CXO 1 25867U 99040B 21326.77653400 .00000721 00000-0 00000+0 0 9995 2 25867 51.1531 248.1302 8561174 228.0511 359.8263 0.37804835 22173 ____________________________________________________________________ These 2-Line ...Continue Reading

[list_settings.list_name] Current TLEs

November 22nd 2021 PST

HST 1 20580U 90037B 21325.85567333 .00000721 00000-0 32506-4 0 9997 2 20580 28.4696 103.4591 0002552 323.2803 170.4381 15.09846328534800 ISS (ZARYA) 1 25544U 98067A 21325.92460194 .00002737 00000-0 58579-4 0 9995 2 25544 51.6448 282.7674 0004614 225.8810 190.4557 15.48613392313041 CXO 1 25867U 99040B 21326.77653400 .00000721 00000-0 00000+0 0 9995 2 25867 51.1531 248.1302 8561174 228.0511 359.8263 0.37804835 22173 ____________________________________________________________________ These 2-Line ...Continue Reading

[list_settings.list_name] Current TLEs

November 21st 2021 PST

HST 1 20580U 90037B 21324.86355168 .00000679 00000-0 29925-4 0 9991 2 20580 28.4695 110.0258 0002527 311.9046 178.4986 15.09845015534652 ISS (ZARYA) 1 25544U 98067A 21325.09383126 .00002468 00000-0 53656-4 0 9994 2 25544 51.6441 286.8773 0004594 224.3365 237.3914 15.48606672312911 CXO 1 25867U 99040B 21324.13203450 .00000623 00000-0 00000-0 0 9991 2 25867 51.2190 248.2605 8557273 227.9948 359.8698 0.37804732 11030 ____________________________________________________________________ These 2-Line ...Continue Reading

[list_settings.list_name] Current TLEs

November 20th 2021 PST

HST 1 20580U 90037B 21323.87138479 .00000673 00000-0 29565-4 0 9999 2 20580 28.4693 116.5928 0002502 300.6201 186.2257 15.09843926534507 ISS (ZARYA) 1 25544U 98067A 21324.06457731 .00001146 00000-0 29342-4 0 9991 2 25544 51.6442 291.9657 0004633 219.6337 260.2444 15.48598792312758 CXO 1 25867U 99040B 21324.13203450 .00000623 00000-0 00000-0 0 9991 2 25867 51.2190 248.2605 8557273 227.9948 359.8698 0.37804732 11030 ____________________________________________________________________ These 2-Line ...Continue Reading

[list_settings.list_name] Current TLEs

November 19th 2021 PST

HST 1 20580U 90037B 21323.15093705 .00000658 00000-0 28683-4 0 9995 2 20580 28.4693 121.3613 0002490 292.3424 230.7899 15.09843071534667 ISS (ZARYA) 1 25544U 98067A 21323.36049569 .00011656 00000-0 22241-3 0 9996 2 25544 51.6445 295.4484 0004564 219.3415 292.7247 15.48602948312643 CXO 1 25867U 99040B 21324.13203450 .00000623 00000-0 00000-0 0 9991 2 25867 51.2190 248.2605 8557273 227.9948 359.8698 0.37804732 11030 ____________________________________________________________________ These 2-Line ...Continue Reading

[list_settings.list_name] Current TLEs

November 18th 2021 PST

HST 1 20580U 90037B 21321.89248979 .00000706 00000-0 31573-4 0 9995 2 20580 28.4691 129.6908 0002471 277.6232 231.7395 15.09842021534201 ISS (ZARYA) 1 25544U 98067A 21322.39342017 .00001764 00000-0 40729-4 0 9993 2 25544 51.6446 300.2254 0004723 212.1243 305.0050 15.48591494312497 CXO 1 25867U 99040B 21324.13198455 .00000623 00000-0 00000-0 0 9999 2 25867 51.2202 248.2616 8557253 227.9937 359.8635 0.37805262 11021 ____________________________________________________________________ These 2-Line ...Continue Reading

[list_settings.list_name] Current TLEs

November 17th 2021 PST

HST 1 20580U 90037B 21320.89452227 .00000685 00000-0 30306-4 0 9996 2 20580 28.4690 136.2962 0002465 266.0591 208.1653 15.09840853534056 ISS (ZARYA) 1 25544U 98067A 21320.89407503 .00001274 00000-0 31719-4 0 9993 2 25544 51.6448 307.6371 0004680 205.5068 227.3797 15.48583252312265 CXO 1 25867U 99040B 21324.13132742 .00000623 00000-0 00000+0 0 9995 2 25867 51.2202 248.2616 8557241 227.9937 359.7751 0.37805155 22164 ____________________________________________________________________ These 2-Line ...Continue Reading

[list_settings.list_name] Current TLEs

November 16th 2021 PST

HST 1 20580U 90037B 21319.90234606 .00000706 00000-0 31553-4 0 9994 2 20580 28.4689 142.8633 0002467 254.4114 216.2198 15.09839933533900 ISS (ZARYA) 1 25544U 98067A 21320.45357600 .00001273 00000-0 31699-4 0 9993 2 25544 51.6447 309.8146 0004630 203.2970 292.2322 15.48581711312195 CXO 1 25867U 99040B 21321.48831443 .00000577 00000-0 00000-0 0 9993 2 25867 51.2906 248.3930 8551981 227.9399 0.0080 0.37805558 11012 ____________________________________________________________________ These 2-Line ...Continue Reading

[list_settings.list_name] Current TLEs

November 15th 2021 PST

HST 1 20580U 90037B 21318.91644708 .00000674 00000-0 29651-4 0 9992 2 20580 28.4688 149.3889 0002480 243.0276 258.2008 15.09838691533751 ISS (ZARYA) 1 25544U 98067A 21319.35739993 .00000631 00000-0 19891-4 0 9996 2 25544 51.6444 315.2349 0004653 199.5072 300.9261 15.48575718312024 CXO 1 25867U 99040B 21321.48831443 .00000577 00000-0 00000-0 0 9993 2 25867 51.2906 248.3930 8551981 227.9399 0.0080 0.37805558 11012 ____________________________________________________________________ These 2-Line ...Continue Reading

[list_settings.list_name] Current TLEs

November 14th 2021 PST

HST 1 20580U 90037B 21317.98801201 .00000700 00000-0 31209-4 0 9993 2 20580 28.4687 155.5342 0002506 232.1805 252.6088 15.09837809533889 ISS (ZARYA) 1 25544U 98067A 21318.39216742 -.00002430 00000-0 -36485-4 0 9990 2 25544 51.6444 320.0103 0004500 199.7233 316.1136 15.48586344311877 CXO 1 25867U 99040B 21318.84433161 .00000634 00000-0 00000-0 0 9998 2 25867 51.3446 248.5032 8545566 227.9090 0.0857 0.37805266 11004 ____________________________________________________________________ These 2-Line ...Continue Reading
  • This mailing list is a public mailing list - anyone may join or leave, at any time.
  • This mailing list is announce-only.

International Space Station (ISS) / Hubble Space Telescope (HST) / Chandra X-Ray Observatory Orbital Data via EMAIL

Privacy Policy:

Private list